Location: Newark
(36.0797°N, 3.9744°E)
Time: 03:14:31
(UTC+00:00)

Vanguard 2 - Pass Details

Date: 13 December 2019
Orbit: 553 x 2938 km, 32.9° (Epoch: 23 January)

Event Time Altitude Azimuth Distance (km) Brightness Sun altitude
Exits shadow 00:40:41 25° 87° (E) 4,627 11.4 -71.2°
Drops below altitude 10° 00:46:06 10° 82° (E) 5,751 12.1 -70.4°
Sets 00:50:30 0° 80° (E) 6,690 12.6 -69.6°
